• En España
  • Lista de países
  • Para 7 días
  • Temperatura del agua
  • Mapa Satelital
  • El tiempo en el mapa
  • Informadores
  • user-avatar
    Iniciar sesión

    Tiempo cada hora Kipungo

    Hoy, 21 Agosto, Martes

    Tiempo Temperatura Precipitaciones Viento Presión Humedad
    00:00 +18°C° 0 mm 2 mps 654 mmHg 68%
    01:00 +18°C° 0 mm 2 mps 654 mmHg 76%
    02:00 +18°C° 0 mm 1 mps 654 mmHg 78%
    03:00 +18°C° 0 mm 1 mps 654 mmHg 80%
    04:00 +16°C° 0 mm 1 mps 654 mmHg 83%
    05:00 +16°C° 0 mm 1 mps 654 mmHg 81%
    06:00 +16°C° 0 mm 1 mps 654 mmHg 79%
    07:00 +18°C° 0 mm 1 mps 655 mmHg 73%
    08:00 +22°C° 0 mm 1 mps 656 mmHg 60%
    09:00 +25°C° 0 mm 1 mps 656 mmHg 46%
    10:00 +28°C° 0 mm 2 mps 657 mmHg 32%
    11:00 +31°C° 0 mm 1 mps 657 mmHg 26%
    12:00 +33°C° 0 mm 1 mps 657 mmHg 21%
    13:00 +35°C° 0 mm 1 mps 657 mmHg 15%
    14:00 +35°C° 0 mm 1 mps 657 mmHg 15%
    15:00 +34°C° 0 mm 1 mps 656 mmHg 15%
    16:00 +33°C° 0 mm 1 mps 656 mmHg 14%
    17:00 +31°C° 0 mm 1 mps 655 mmHg 18%
    18:00 +28°C° 0 mm 1 mps 654 mmHg 21%
    19:00 +25°C° 0 mm 1 mps 654 mmHg 25%
    20:00 +24°C° 0 mm 1 mps 654 mmHg 30%
    21:00 +23°C° 0 mm 1 mps 654 mmHg 35%
    22:00 +21°C° 0 mm 2 mps 654 mmHg 40%
    23:00 +20°C° 0 mm 2 mps 654 mmHg 45%

    Mañana, 22 Agosto, Miércoles

    Tiempo Temperatura Precipitaciones Viento Presión Humedad
    00:00 +20°C° 0 mm 1 mps 654 mmHg 51%
    01:00 +19°C° 0 mm 1 mps 654 mmHg 56%
    02:00 +19°C° 0 mm 1 mps 653 mmHg 58%
    03:00 +18°C° 0 mm 1 mps 653 mmHg 60%
    04:00 +16°C° 0 mm 0 mps 653 mmHg 62%
    05:00 +16°C° 0 mm 0 mps 653 mmHg 60%
    06:00 +16°C° 0 mm 0 mps 654 mmHg 59%
    07:00 +16°C° 0 mm 0 mps 654 mmHg 58%
    08:00 +22°C° 0 mm 1 mps 655 mmHg 46%
    09:00 +26°C° 0 mm 1 mps 656 mmHg 34%
    10:00 +29°C° 0 mm 2 mps 657 mmHg 21%
    11:00 +31°C° 0 mm 2 mps 657 mmHg 19%
    12:00 +34°C° 0 mm 2 mps 656 mmHg 16%
    13:00 +35°C° 0 mm 1 mps 656 mmHg 13%
    14:00 +35°C° 0 mm 1 mps 656 mmHg 13%
    15:00 +34°C° 0 mm 1 mps 655 mmHg 13%
    16:00 +34°C° 0 mm 1 mps 654 mmHg 13%
    17:00 +31°C° 0 mm 1 mps 654 mmHg 16%
    18:00 +29°C° 0 mm 1 mps 654 mmHg 19%
    19:00 +26°C° 0 mm 1 mps 654 mmHg 22%
    20:00 +25°C° 0 mm 2 mps 654 mmHg 28%
    21:00 +23°C° 0 mm 2 mps 654 mmHg 34%
    22:00 +21°C° 0 mm 3 mps 655 mmHg 40%
    23:00 +20°C° 0 mm 2 mps 654 mmHg 43%

    Pasado mañana, 23 Agosto, Jueves

    Tiempo Temperatura Precipitaciones Viento Presión Humedad
    00:00 +19°C° 0 mm 2 mps 654 mmHg 45%
    01:00 +19°C° 0 mm 1 mps 654 mmHg 48%
    02:00 +19°C° 0 mm 1 mps 654 mmHg 48%
    03:00 +18°C° 0 mm 1 mps 653 mmHg 49%
    04:00 +15°C° 0 mm 0 mps 653 mmHg 49%
    05:00 +16°C° 0 mm 0 mps 653 mmHg 47%
    06:00 +18°C° 0 mm 1 mps 654 mmHg 44%
    07:00 +19°C° 0 mm 1 mps 654 mmHg 41%
    08:00 +22°C° 0 mm 1 mps 655 mmHg 32%
    09:00 +26°C° 0 mm 2 mps 656 mmHg 24%
    10:00 +29°C° 0 mm 3 mps 657 mmHg 15%
    11:00 +31°C° 0 mm 3 mps 656 mmHg 13%
    12:00 +34°C° 0 mm 2 mps 656 mmHg 12%
    13:00 +36°C° 0 mm 2 mps 655 mmHg 10%
    14:00 +36°C° 0 mm 2 mps 655 mmHg 10%
    15:00 +35°C° 0 mm 1 mps 654 mmHg 10%
    16:00 +35°C° 0 mm 1 mps 654 mmHg 10%
    17:00 +32°C° 0 mm 1 mps 653 mmHg 12%
    18:00 +29°C° 0 mm 1 mps 653 mmHg 14%
    19:00 +26°C° 0 mm 1 mps 653 mmHg 17%
    20:00 +25°C° 0 mm 1 mps 653 mmHg 20%
    21:00 +23°C° 0 mm 2 mps 654 mmHg 24%
    22:00 +21°C° 0 mm 2 mps 654 mmHg 27%
    23:00 +20°C° 0 mm 2 mps 654 mmHg 30%

    24 Agosto, Viernes

    Tiempo Temperatura Precipitaciones Viento Presión Humedad
    00:00 +19°C° 0 mm 2 mps 653 mmHg 33%
    01:00 +19°C° 0 mm 1 mps 653 mmHg 36%
    02:00 +19°C° 0 mm 1 mps 653 mmHg 37%
    03:00 +18°C° 0 mm 1 mps 652 mmHg 38%
    04:00 +16°C° 0 mm 0 mps 652 mmHg 39%
    05:00 +18°C° 0 mm 1 mps 653 mmHg 38%
    06:00 +18°C° 0 mm 1 mps 653 mmHg 36%
    07:00 +19°C° 0 mm 1 mps 654 mmHg 35%
    08:00 +23°C° 0 mm 1 mps 655 mmHg 28%
    09:00 +27°C° 0 mm 2 mps 656 mmHg 21%
    10:00 +30°C° 0 mm 2 mps 657 mmHg 13%
    11:00 +34°C° 0 mm 2 mps 656 mmHg 12%
    12:00 +35°C° 0 mm 1 mps 656 mmHg 10%
    13:00 +37°C° 0 mm 1 mps 656 mmHg 9%
    14:00 +37°C° 0 mm 1 mps 655 mmHg 9%
    15:00 +37°C° 0 mm 1 mps 655 mmHg 9%
    16:00 +36°C° 0 mm 1 mps 654 mmHg 9%
    17:00 +33°C° 0 mm 1 mps 654 mmHg 11%
    18:00 +30°C° 0 mm 1 mps 654 mmHg 14%
    19:00 +27°C° 0 mm 2 mps 654 mmHg 16%
    20:00 +25°C° 0 mm 2 mps 654 mmHg 20%
    21:00 +24°C° 0 mm 2 mps 654 mmHg 23%
    22:00 +21°C° 0 mm 2 mps 654 mmHg 26%
    23:00 +21°C° 0 mm 2 mps 654 mmHg 28%

    25 Agosto, Sábado

    Tiempo Temperatura Precipitaciones Viento Presión Humedad
    00:00 +20°C° 0 mm 2 mps 654 mmHg 30%
    01:00 +19°C° 0 mm 2 mps 653 mmHg 32%
    02:00 +20°C° 0 mm 1 mps 653 mmHg 33%
    03:00 +19°C° 0 mm 1 mps 653 mmHg 34%
    04:00 +19°C° 0 mm 1 mps 653 mmHg 34%
    05:00 +19°C° 0 mm 1 mps 653 mmHg 34%
    06:00 +19°C° 0 mm 1 mps 654 mmHg 33%
    07:00 +18°C° 0 mm 0 mps 654 mmHg 32%
    08:00 +23°C° 0 mm 1 mps 655 mmHg 26%
    09:00 +27°C° 0 mm 2 mps 656 mmHg 20%
    10:00 +31°C° 0 mm 3 mps 657 mmHg 14%
    11:00 +34°C° 0 mm 2 mps 657 mmHg 12%
    12:00 +36°C° 0 mm 2 mps 656 mmHg 11%
    13:00 +38°C° 0 mm 2 mps 656 mmHg 9%
    14:00 +38°C° 0 mm 2 mps 655 mmHg 9%
    15:00 +36°C° 0 mm 1 mps 655 mmHg 9%
    16:00 +36°C° 0 mm 1 mps 654 mmHg 10%
    17:00 +33°C° 0 mm 1 mps 654 mmHg 12%
    18:00 +30°C° 0 mm 1 mps 654 mmHg 15%
    19:00 +27°C° 0 mm 2 mps 654 mmHg 17%
    20:00 +26°C° 0 mm 2 mps 654 mmHg 20%
    21:00 +24°C° 0 mm 2 mps 654 mmHg 23%
    22:00 +23°C° 0 mm 2 mps 654 mmHg 27%
    23:00 +21°C° 0 mm 2 mps 654 mmHg 28%

    26 Agosto, Domingo

    Tiempo Temperatura Precipitaciones Viento Presión Humedad
    00:00 +20°C° 0 mm 2 mps 653 mmHg 30%
    01:00 +20°C° 0 mm 2 mps 653 mmHg 31%
    02:00 +20°C° 0 mm 1 mps 653 mmHg 33%
    03:00 +19°C° 0 mm 1 mps 653 mmHg 35%
    04:00 +16°C° 0 mm 0 mps 652 mmHg 37%
    05:00 +17°C° 0 mm 0 mps 653 mmHg 36%
    06:00 +17°C° 0 mm 0 mps 654 mmHg 35%
    07:00 +17°C° 0 mm 0 mps 654 mmHg 35%
    08:00 +23°C° 0 mm 1 mps 655 mmHg 28%
    09:00 +27°C° 0 mm 2 mps 656 mmHg 22%
    10:00 +30°C° 0 mm 2 mps 657 mmHg 15%
    11:00 +32°C° 0 mm 2 mps 656 mmHg 13%
    12:00 +35°C° 0 mm 2 mps 656 mmHg 12%
    13:00 +36°C° 0 mm 2 mps 655 mmHg 10%
    14:00 +36°C° 0 mm 2 mps 655 mmHg 10%
    15:00 +36°C° 0 mm 2 mps 655 mmHg 10%
    16:00 +36°C° 0 mm 2 mps 654 mmHg 10%
    17:00 +34°C° 0 mm 2 mps 654 mmHg 12%
    18:00 +30°C° 0 mm 1 mps 654 mmHg 15%
    19:00 +27°C° 0 mm 1 mps 654 mmHg 17%
    20:00 +26°C° 0 mm 2 mps 654 mmHg 19%
    21:00 +24°C° 0 mm 2 mps 654 mmHg 21%
    22:00 +23°C° 0 mm 2 mps 654 mmHg 24%
    23:00 +21°C° 0 mm 2 mps 654 mmHg 26%
    Mostrar más